,,Stat1,,Stat2,,Stat3,,Stat4,,Wind1,,Wind1,
time,status,PR1M_SUM,status,RH1M_AVG,status,SR1M_AVG,status,TA1M_AVG,status,W1dAve1m,status,W1sAve1m,
1999-09-15, 00:01:00,VALID,0,VALID,100,VALID,0,VALID,18.8263,VALID,53,VALID,0.182726,
1999-09-15, 00:02:00,VALID,0,VALID,100,VALID,-0.0169808,VALID,18.8099,VALID,68,VALID,0.101768,
1999-09-15, 00:03:00,VALID,0,VALID,100,VALID,0,VALID,18.8092,VALID,111,VALID,0.454359,
1999-09-15, 00:04:00,VALID,0,VALID,100,VALID,0,VALID,18.8223,VALID,105,VALID,0.496528,
1999-09-15, 00:05:00,VALID,0,VALID,100,VALID,0,VALID,18.829,VALID,97,VALID,0.558377,
1999-09-15, 00:06:00,VALID,0,VALID,100,VALID,-0.0169808,VALID,18.8198,VALID,95,VALID,0.745759,
1999-09-15, 00:07:00,VALID,0,VALID,100,VALID,0,VALID,18.7773,VALID,95,VALID,1.08894,
1999-09-15, 00:08:00,VALID,0,VALID,100,VALID,0,VALID,18.7873,VALID,98,VALID,1.12522,
1999-09-15, 00:09:00,VALID,0,VALID,100,VALID,0,VALID,18.7741,VALID,91,VALID,0.89171,
1999-09-15, 00:10:00,VALID,0,VALID,100,VALID,-0.0169808,VALID,18.7552,VALID,62,VALID,0.714955,
1999-09-15, 00:11:00,VALID,0,VALID,100,VALID,0,VALID,18.7415,VALID,76,VALID,1.22776,
1999-09-15, 00:12:00,VALID,0,VALID,100,VALID,-0.0169808,VALID,18.7388,VALID,88,VALID,2.14598,
1999-09-15, 00:13:00,VALID,0,VALID,100,VALID,-0.0169808,VALID,18.745,VALID,90,VALID,1.85938,
1999-09-15, 00:14:00,VALID,0,VALID,100,VALID,-0.0169808,VALID,18.7646,VALID,84,VALID,1.24888,
1999-09-15, 00:15:00,VALID,0,VALID,100,VALID,-0.0339617,VALID,18.7676,VALID,87,VALID,0.917869,
1999-09-15, 00:16:00,VALID,0,VALID,100,VALID,-0.0169808,VALID,18.7644,VALID,82,VALID,0.509821,
1999-09-15, 00:17:00,VALID,0,VALID,100,VALID,0,VALID,18.7545,VALID,323,VALID,0.379123,
1999-09-15, 00:18:00,VALID,0,VALID,100,VALID,-0.0169808,VALID,18.7577,VALID,308,VALID,0.152232,
1999-09-15, 00:19:00,VALID,0,VALID,100,VALID,0,VALID,18.7582,VALID,96,VALID,0.445112,
1999-09-15, 00:20:00,VALID,0,VALID,100,VALID,0,VALID,18.7482,VALID,95,VALID,0.985937,
1999-09-15, 00:21:00,VALID,0,VALID,100,VALID,-0.0339617,VALID,18.742,VALID,90,VALID,0.805339,
1999-09-15, 00:22:00,VALID,0,VALID,100,VALID,-0.0339617,VALID,18.7323,VALID,10,VALID,0.448438,
1999-09-15, 00:23:00,VALID,0,VALID,100,VALID,0,VALID,18.7323,VALID,327,VALID,0.498798,
1999-09-15, 00:24:00,VALID,0,VALID,100,VALID,-0.0169808,VALID,18.7353,VALID,338,VALID,0.465625,
1999-09-15, 00:25:00,VALID,0,VALID,100,VALID,0.0339617,VALID,18.7353,VALID,353,VALID,0.595269,
1999-09-15, 00:26:00,VALID,0,VALID,100,VALID,-0.0169808,VALID,18.7057,VALID,355,VALID,0.602455,
1999-09-15, 00:27:00,VALID,0,VALID,100,VALID,-0.0169808,VALID,18.6997,VALID,7,VALID,0.5,
1999-09-15, 00:28:00,VALID,0,VALID,100,VALID,0,VALID,18.7032,VALID,96,VALID,0.332366,
1999-09-15, 00:29:00,VALID,0,VALID,100,VALID,0.0169808,VALID,18.7159,VALID,72,VALID,0.643229,
1999-09-15, 00:30:00,VALID,0,VALID,100,VALID,-0.0339617,VALID,18.7159,VALID,84,VALID,0.32433,
1999-09-15, 00:31:01,VALID,0,VALID,100,VALID,-0.0509425,VALID,18.7295,VALID,46,VALID,0.188702,
1999-09-15, 00:32:00,VALID,0,VALID,100,VALID,-0.0169808,VALID,18.6967,VALID,313,VALID,0.562723,
1999-09-15, 00:33:00,VALID,0,VALID,100,VALID,0,VALID,18.6808,VALID,321,VALID,0.274957,
1999-09-15, 00:34:00,VALID,0,VALID,100,VALID,0,VALID,18.6838,VALID,354,VALID,0.567634,
1999-09-15, 00:35:00,VALID,0,VALID,100,VALID,0,VALID,18.6873,VALID,30,VALID,0.421675,
1999-09-15, 00:36:00,VALID,0,VALID,100,VALID,0,VALID,18.7067,VALID,85,VALID,0.608705,
1999-09-15, 00:37:00,VALID,0,VALID,100,VALID,-0.0509425,VALID,18.6972,VALID,90,VALID,0.861111,
1999-09-15, 00:38:00,VALID,0,VALID,100,VALID,-0.0339617,VALID,18.6905,VALID,78,VALID,0.60067,
1999-09-15, 00:39:00,VALID,0,VALID,100,VALID,0,VALID,18.6838,VALID,86,VALID,0.611178,
1999-09-15, 00:40:00,VALID,0,VALID,100,VALID,0,VALID,18.6903,VALID,69,VALID,0.981696,
1999-09-15, 00:41:00,VALID,0,VALID,100,VALID,0,VALID,18.7097,VALID,71,VALID,0.409939,
1999-09-15, 00:42:01,VALID,0,VALID,100,VALID,-0.0169808,VALID,18.7134,VALID,338,VALID,0.172768,
1999-09-15, 00:43:00,VALID,0,VALID,100,VALID,-0.0169808,VALID,18.7295,VALID,316,VALID,0,
1999-09-15, 00:44:00,VALID,0,VALID,100,VALID,-0.0169808,VALID,18.7191,VALID,14,VALID,0,
1999-09-15, 00:45:00,VALID,0,VALID,100,VALID,-0.0169808,VALID,18.7388,VALID,87,VALID,0.00325521,
1999-09-15, 00:46:00,VALID,0,VALID,100,VALID,-0.0169808,VALID,18.7385,VALID,86,VALID,0.527455,
1999-09-15, 00:47:00,VALID,0,VALID,100,VALID,-0.0169808,VALID,18.7619,VALID,91,VALID,0.169071,
1999-09-15, 00:48:00,VALID,0,VALID,100,VALID,0,VALID,18.7843,VALID,88,VALID,0.885491,
1999-09-15, 00:49:00,VALID,0,VALID,100,VALID,0,VALID,18.7907,VALID,86,VALID,0.730035,
1999-09-15, 00:50:00,VALID,0,VALID,100,VALID,0,VALID,18.8069,VALID,99,VALID,0.405134,
1999-09-15, 00:51:00,VALID,0,VALID,100,VALID,0.0169808,VALID,18.787,VALID,94,VALID,0.169271,
1999-09-15, 00:52:00,VALID,0,VALID,100,VALID,0.0339617,VALID,18.7944,VALID,93,VALID,0.152455,
1999-09-15, 00:53:01,VALID,0,VALID,100,VALID,0,VALID,18.7873,VALID,87,VALID,0.373481,
1999-09-15, 00:54:00,VALID,0,VALID,100,VALID,0,VALID,18.7877,VALID,80,VALID,0.606473,
1999-09-15, 00:55:00,VALID,0,VALID,100,VALID,-0.0169808,VALID,18.8138,VALID,77,VALID,0.653846,
1999-09-15, 00:56:00,VALID,0,VALID,100,VALID,-0.0169808,VALID,18.8136,VALID,68,VALID,0.627902,
1999-09-15, 00:57:00,VALID,0,VALID,100,VALID,0,VALID,18.8064,VALID,31,VALID,0.355903,
1999-09-15, 00:58:00,VALID,0,VALID,100,VALID,0,VALID,18.8129,VALID,55,VALID,0.637277,
1999-09-15, 00:59:00,VALID,0,VALID,100,VALID,0,VALID,18.8096,VALID,83,VALID,0.924679,
1999-09-15, 01:00:00,VALID,0,VALID,100,VALID,-0.0169808,VALID,18.826,VALID,96,VALID,1.09621,
1999-09-15, 01:01:00,VALID,0,VALID,100,VALID,0.0169808,VALID,18.826,VALID,89,VALID,1.35221,
1999-09-15, 01:02:00,VALID,0,VALID,100,VALID,0,VALID,18.826,VALID,92,VALID,1.27589,
1999-09-15, 01:03:00,VALID,0,VALID,100,VALID,-0.0339617,VALID,18.8263,VALID,87,VALID,1.29107,
1999-09-15, 01:04:01,VALID,0,VALID,100,VALID,0,VALID,18.8263,VALID,88,VALID,1.34576,
1999-09-15, 01:05:00,VALID,0,VALID,100,VALID,-0.0169808,VALID,18.8293,VALID,80,VALID,1.23524,
1999-09-15, 01:06:00,VALID,0,VALID,100,VALID,0,VALID,18.8357,VALID,88,VALID,1.07567,
1999-09-15, 01:07:00,VALID,0,VALID,100,VALID,-0.0169808,VALID,18.8427,VALID,79,VALID,0.640625,
1999-09-15, 01:08:00,VALID,0,VALID,100,VALID,-0.0169808,VALID,18.833,VALID,57,VALID,0.338393,
1999-09-15, 01:09:00,VALID,0,VALID,100,VALID,0,VALID,18.8355,VALID,41,VALID,0.297309,
1999-09-15, 01:10:00,VALID,0,VALID,100,VALID,0,VALID,18.8387,VALID,57,VALID,0.303571,
1999-09-15, 01:11:00,VALID,0,VALID,100,VALID,0,VALID,18.8489,VALID,95,VALID,1.12921,
1999-09-15, 01:12:00,VALID,0,VALID,100,VALID,-0.0169808,VALID,18.8489,VALID,87,VALID,0.886607,
1999-09-15, 01:13:00,VALID,0,VALID,100,VALID,-0.0169808,VALID,18.8517,VALID,70,VALID,0.506944,
1999-09-15, 01:14:00,VALID,0,VALID,100,VALID,-0.0509425,VALID,18.839,VALID,33,VALID,0.252679,
1999-09-15, 01:15:01,VALID,0,VALID,100,VALID,0,VALID,18.832,VALID,276,VALID,0.0929487,
1999-09-15, 01:16:00,VALID,0,VALID,100,VALID,0.0339617,VALID,18.832,VALID,254,VALID,0.000892857,
1999-09-15, 01:17:00,VALID,0,VALID,100,VALID,0.0169808,VALID,18.8487,VALID,197,VALID,0.0251736,
1999-09-15, 01:18:00,VALID,0,VALID,100,VALID,0,VALID,18.8487,VALID,115,VALID,0.144196,
1999-09-15, 01:19:00,VALID,0,VALID,100,VALID,0.0169808,VALID,18.8422,VALID,96,VALID,0.343349,
1999-09-15, 01:20:00,VALID,0,VALID,100,VALID,0.0169808,VALID,18.8452,VALID,80,VALID,0.445536,
1999-09-15, 01:21:00,VALID,0,VALID,100,VALID,0,VALID,18.8512,VALID,95,VALID,0.503689,
1999-09-15, 01:22:00,VALID,0,VALID,100,VALID,0,VALID,18.8551,VALID,91,VALID,0.665402,
1999-09-15, 01:23:00,VALID,0,VALID,100,VALID,0.0169808,VALID,18.8646,VALID,105,VALID,0.284655,
1999-09-15, 01:24:00,VALID,0,VALID,100,VALID,0,VALID,18.8574,VALID,309,VALID,0.526786,
1999-09-15, 01:25:00,VALID,0,VALID,100,VALID,0,VALID,18.8353,VALID,288,VALID,0.103299,
1999-09-15, 01:26:01,VALID,0,VALID,100,VALID,0,VALID,18.8355,VALID,304,VALID,0.224554,
1999-09-15, 01:27:00,VALID,0,VALID,100,VALID,0,VALID,18.8452,VALID,181,VALID,0.347556,
1999-09-15, 01:28:00,VALID,0,VALID,100,VALID,0,VALID,18.8581,VALID,120,VALID,0.422098,
1999-09-15, 01:29:00,VALID,0,VALID,100,VALID,0,VALID,18.8875,VALID,100,VALID,0.667752,
1999-09-15, 01:30:00,VALID,0,VALID,100,VALID,0,VALID,18.884,VALID,90,VALID,0.566741,
1999-09-15, 01:31:00,VALID,0,VALID,100,VALID,0.0169808,VALID,18.8808,VALID,91,VALID,0.290465,
1999-09-15, 01:32:00,VALID,0,VALID,100,VALID,0,VALID,18.8775,VALID,107,VALID,0.14933,
1999-09-15, 01:33:00,VALID,0,VALID,100,VALID,0,VALID,18.8838,VALID,117,VALID,0.29145,
1999-09-15, 01:34:00,VALID,0,VALID,100,VALID,0,VALID,18.8838,VALID,117,VALID,0.0986607,
1999-09-15, 01:35:00,VALID,0,VALID,100,VALID,-0.0169808,VALID,18.8907,VALID,117,VALID,0.0755208,
1999-09-15, 01:36:00,VALID,0,VALID,100,VALID,0,VALID,18.9034,VALID,116,VALID,0.247321,
1999-09-15, 01:37:00,VALID,0,VALID,100,VALID,0,VALID,18.9101,VALID,114,VALID,0.410807,
1999-09-15, 01:38:00,VALID,0,VALID,100,VALID,0,VALID,18.9096,VALID,100,VALID,0.685268,
1999-09-15, 01:39:00,VALID,0,VALID,100,VALID,0,VALID,18.8967,VALID,82,VALID,0.405248,
1999-09-15, 01:40:00,VALID,0,VALID,100,VALID,0,VALID,18.8778,VALID,86,VALID,0.696429,
1999-09-15, 01:41:00,VALID,0,VALID,100,VALID,0.0169808,VALID,18.8907,VALID,97,VALID,0.621094,
1999-09-15, 01:42:00,VALID,0,VALID,100,VALID,0.0169808,VALID,18.8972,VALID,93,VALID,1.07232,
1999-09-15, 01:43:00,VALID,0,VALID,100,VALID,0,VALID,18.887,VALID,86,VALID,1.03365,
1999-09-15, 01:44:00,VALID,0,VALID,100,VALID,0,VALID,18.887,VALID,94,VALID,0.84442,
1999-09-15, 01:45:00,VALID,0,VALID,100,VALID,0,VALID,18.8999,VALID,80,VALID,0.396267,
1999-09-15, 01:46:00,VALID,0,VALID,100,VALID,-0.0169808,VALID,18.8868,VALID,61,VALID,0.3625,
1999-09-15, 01:47:00,VALID,0,VALID,100,VALID,0,VALID,18.8939,VALID,335,VALID,0.264824,
1999-09-15, 01:48:00,VALID,0,VALID,100,VALID,-0.0169808,VALID,18.8939,VALID,326,VALID,0.0819196,
1999-09-15, 01:49:00,VALID,0,VALID,100,VALID,0,VALID,18.8897,VALID,82,VALID,0.209852,
1999-09-15, 01:50:00,VALID,0,VALID,100,VALID,-0.0169808,VALID,18.884,VALID,87,VALID,0.442634,
1999-09-15, 01:51:00,VALID,0,VALID,100,VALID,0,VALID,18.8905,VALID,93,VALID,1.05429,
1999-09-15, 01:52:00,VALID,0,VALID,100,VALID,0.0509425,VALID,18.884,VALID,97,VALID,1.10647,
1999-09-15, 01:53:00,VALID,0,VALID,100,VALID,0,VALID,18.8805,VALID,93,VALID,1.29688,
1999-09-15, 01:54:00,VALID,0,VALID,100,VALID,0,VALID,18.887,VALID,93,VALID,1.27031,
1999-09-15, 01:55:00,VALID,0,VALID,100,VALID,0,VALID,18.8935,VALID,90,VALID,1.3746,
1999-09-15, 01:56:00,VALID,0,VALID,100,VALID,0,VALID,18.9002,VALID,90,VALID,1.05893,
1999-09-15, 01:57:00,VALID,0,VALID,100,VALID,0.0339617,VALID,18.9064,VALID,84,VALID,0.943142,
1999-09-15, 01:58:00,VALID,0,VALID,100,VALID,0,VALID,18.9196,VALID,96,VALID,0.794196,
1999-09-15, 01:59:00,VALID,0,VALID,100,VALID,0,VALID,18.9221,VALID,86,VALID,0.49359,
1999-09-15, 02:00:00,VALID,0,VALID,100,VALID,0.0339617,VALID,18.9415,VALID,90,VALID,0.510714,
1999-09-15, 02:01:00,VALID,0,VALID,100,VALID,0,VALID,18.9583,VALID,98,VALID,1.03385,
1999-09-15, 02:02:00,VALID,0,VALID,100,VALID,0,VALID,18.9415,VALID,107,VALID,1.05491,
1999-09-15, 02:03:00,VALID,0,VALID,100,VALID,0,VALID,18.9583,VALID,96,VALID,1.07372,
1999-09-15, 02:04:00,VALID,0,VALID,100,VALID,0,VALID,18.9613,VALID,98,VALID,0.875,
1999-09-15, 02:05:00,VALID,0,VALID,100,VALID,0,VALID,18.9551,VALID,108,VALID,1.01497,
1999-09-15, 02:06:00,VALID,0,VALID,100,VALID,-0.0169808,VALID,18.9519,VALID,97,VALID,0.9,
1999-09-15, 02:07:00,VALID,0,VALID,100,VALID,0,VALID,18.965,VALID,105,VALID,0.953726,
1999-09-15, 02:08:00,VALID,0,VALID,100,VALID,0.0169808,VALID,18.9551,VALID,97,VALID,1.05848,
1999-09-15, 02:09:00,VALID,0,VALID,100,VALID,0,VALID,18.9516,VALID,84,VALID,0.667318,
1999-09-15, 02:10:00,VALID,0,VALID,100,VALID,0.0169808,VALID,18.929,VALID,93,VALID,1.07902,
1999-09-15, 02:11:00,VALID,0,VALID,100,VALID,0,VALID,18.9419,VALID,94,VALID,0.897636,
1999-09-15, 02:12:00,VALID,0,VALID,100,VALID,-0.0169808,VALID,18.9422,VALID,97,VALID,0.998884,
1999-09-15, 02:13:00,VALID,0,VALID,100,VALID,0,VALID,18.9486,VALID,103,VALID,1.19314,
1999-09-15, 02:14:00,VALID,0,VALID,100,VALID,0,VALID,18.9387,VALID,97,VALID,1.37121,
1999-09-15, 02:15:00,VALID,0,VALID,100,VALID,0,VALID,18.9387,VALID,82,VALID,0.93109,
1999-09-15, 02:16:00,VALID,0,VALID,100,VALID,0.0169808,VALID,18.9196,VALID,91,VALID,0.740625,
1999-09-15, 02:17:00,VALID,0,VALID,100,VALID,0.0169808,VALID,18.926,VALID,74,VALID,0.924913,
1999-09-15, 02:18:00,VALID,0,VALID,100,VALID,0,VALID,18.9196,VALID,94,VALID,1.09219,
1999-09-15, 02:19:00,VALID,0,VALID,100,VALID,0,VALID,18.9228,VALID,100,VALID,0.810497,
1999-09-15, 02:20:00,VALID,0,VALID,100,VALID,0,VALID,18.9295,VALID,84,VALID,1.33973,
1999-09-15, 02:21:00,VALID,0,VALID,100,VALID,0.0169808,VALID,18.9064,VALID,92,VALID,1.82313,
1999-09-15, 02:22:00,VALID,0,VALID,100,VALID,0,VALID,18.9128,VALID,95,VALID,1.22478,
1999-09-15, 02:23:00,VALID,0,VALID,100,VALID,0,VALID,18.9193,VALID,88,VALID,0.83153,
1999-09-15, 02:24:00,VALID,0,VALID,100,VALID,0.0169808,VALID,18.9263,VALID,49,VALID,0.636161,
1999-09-15, 02:25:00,VALID,0,VALID,100,VALID,0.0169808,VALID,18.9034,VALID,49,VALID,1.35786,
1999-09-15, 02:26:00,VALID,0,VALID,100,VALID,0.0169808,VALID,18.8972,VALID,91,VALID,1.05223,
1999-09-15, 02:27:00,VALID,0,VALID,100,VALID,0,VALID,18.9133,VALID,99,VALID,0.896835,
1999-09-15, 02:28:00,VALID,0,VALID,100,VALID,0.0339617,VALID,18.9161,VALID,128,VALID,0.354018,
1999-09-15, 02:29:00,VALID,0,VALID,100,VALID,0,VALID,18.9389,VALID,98,VALID,1.05187,
1999-09-15, 02:30:00,VALID,0,VALID,100,VALID,0,VALID,18.9521,VALID,86,VALID,1.07299,
1999-09-15, 02:31:00,VALID,0,VALID,100,VALID,0.0339617,VALID,18.9516,VALID,103,VALID,0.740585,
1999-09-15, 02:32:00,VALID,0,VALID,100,VALID,0,VALID,18.9454,VALID,86,VALID,1.03594,
1999-09-15, 02:33:00,VALID,0,VALID,100,VALID,0,VALID,18.9389,VALID,54,VALID,0.835938,
1999-09-15, 02:34:00,VALID,0,VALID,100,VALID,0.0169808,VALID,18.92,VALID,342,VALID,0.650446,
1999-09-15, 02:35:00,VALID,0,VALID,100,VALID,0.0169808,VALID,18.9069,VALID,324,VALID,0.108373,
1999-09-15, 02:36:00,VALID,0,VALID,100,VALID,0,VALID,18.9036,VALID,318,VALID,0.000446429,
1999-09-15, 02:37:00,VALID,0,VALID,100,VALID,0.0339617,VALID,18.9066,VALID,286,VALID,0.108073,
1999-09-15, 02:38:00,VALID,0,VALID,100,VALID,0.0169808,VALID,18.923,VALID,302,VALID,0.170312,
1999-09-15, 02:39:00,VALID,0,VALID,100,VALID,0.0339617,VALID,18.9258,VALID,184,VALID,0.447917,
1999-09-15, 02:40:00,VALID,0,VALID,100,VALID,0.0169808,VALID,18.9415,VALID,100,VALID,0.278125,
1999-09-15, 02:41:00,VALID,0,VALID,100,VALID,0.0169808,VALID,18.9484,VALID,116,VALID,0.267361,
1999-09-15, 02:42:00,VALID,0,VALID,100,VALID,0.0169808,VALID,18.9258,VALID,115,VALID,0.0665179,
1999-09-15, 02:43:00,VALID,0,VALID,100,VALID,0,VALID,18.9288,VALID,54,VALID,0,
1999-09-15, 02:44:00,VALID,0,VALID,100,VALID,0,VALID,18.9258,VALID,53,VALID,0,
1999-09-15, 02:45:00,VALID,0,VALID,100,VALID,-0.0509425,VALID,18.9427,VALID,76,VALID,0,
1999-09-15, 02:46:00,VALID,0,VALID,100,VALID,-0.101885,VALID,18.9436,VALID,169,VALID,0,
1999-09-15, 02:47:00,VALID,0,VALID,100,VALID,-0.101885,VALID,18.9371,VALID,175,VALID,0,
1999-09-15, 02:48:00,VALID,0,VALID,100,VALID,-0.0679233,VALID,18.9337,VALID,175,VALID,0,
1999-09-15, 02:49:00,VALID,0,VALID,100,VALID,-0.101885,VALID,18.9471,VALID,159,VALID,0,
1999-09-15, 02:50:00,VALID,0,VALID,100,VALID,-0.101885,VALID,18.9729,VALID,100,VALID,0,
1999-09-15, 02:51:00,VALID,0,VALID,100,VALID,-0.0849042,VALID,18.9824,VALID,100,VALID,0,
1999-09-15, 02:52:00,VALID,0,VALID,100,VALID,-0.0679233,VALID,18.9856,VALID,100,VALID,0,
1999-09-15, 02:53:00,VALID,0,VALID,100,VALID,-0.0849042,VALID,18.9789,VALID,101,VALID,0.291016,
1999-09-15, 02:54:00,VALID,0,VALID,100,VALID,-0.101885,VALID,18.9762,VALID,107,VALID,0.623438,
1999-09-15, 02:55:00,VALID,0,VALID,100,VALID,-0.101885,VALID,18.9692,VALID,98,VALID,1.00861,
1999-09-15, 02:56:00,VALID,0,VALID,100,VALID,-0.0679233,VALID,18.9725,VALID,86,VALID,0.981473,
1999-09-15, 02:57:00,VALID,0,VALID,100,VALID,-0.0849042,VALID,18.9856,VALID,346,VALID,0.337891,
1999-09-15, 02:58:00,VALID,0,VALID,100,VALID,-0.0849042,VALID,18.9856,VALID,281,VALID,0.198661,
1999-09-15, 02:59:00,VALID,0,VALID,100,VALID,-0.0679233,VALID,18.9794,VALID,279,VALID,0,
1999-09-15, 03:00:00,VALID,0,VALID,100,VALID,-0.101885,VALID,18.9762,VALID,248,VALID,0.140625,
1999-09-15, 03:01:00,VALID,0,VALID,100,VALID,-0.101885,VALID,18.9727,VALID,226,VALID,0,
1999-09-15, 03:02:00,VALID,0,VALID,100,VALID,-0.101885,VALID,18.9697,VALID,255,VALID,0,
1999-09-15, 03:03:00,VALID,0,VALID,100,VALID,-0.0849042,VALID,18.9692,VALID,271,VALID,0,
1999-09-15, 03:04:00,VALID,0,VALID,100,VALID,-0.101885,VALID,18.9729,VALID,252,VALID,0.263393,
1999-09-15, 03:05:00,VALID,0,VALID,100,VALID,-0.101885,VALID,18.9662,VALID,11,VALID,0.611328,
1999-09-15, 03:06:00,VALID,0,VALID,100,VALID,-0.0679233,VALID,18.9466,VALID,338,VALID,0.66808,
1999-09-15, 03:07:00,VALID,0,VALID,100,VALID,-0.101885,VALID,18.9501,VALID,23,VALID,0.55629,
1999-09-15, 03:08:00,VALID,0,VALID,100,VALID,-0.101885,VALID,18.9533,VALID,95,VALID,1.05513,
1999-09-15, 03:09:00,VALID,0,VALID,100,VALID,-0.101885,VALID,18.9461,VALID,94,VALID,0.966146,
1999-09-15, 03:10:00,VALID,0,VALID,100,VALID,-0.0849042,VALID,18.9725,VALID,91,VALID,0.921205,
1999-09-15, 03:11:00,VALID,0,VALID,100,VALID,-0.0339617,VALID,18.9951,VALID,73,VALID,0.202925,
1999-09-15, 03:12:00,VALID,0,VALID,100,VALID,-0.0339617,VALID,19.008,VALID,97,VALID,0.351563,
1999-09-15, 03:13:00,VALID,0,VALID,100,VALID,-0.101885,VALID,19.0083,VALID,109,VALID,0.559245,
1999-09-15, 03:14:00,VALID,0,VALID,100,VALID,-0.0849042,VALID,19.0212,VALID,112,VALID,0.631696,
1999-09-15, 03:15:01,VALID,0,VALID,100,VALID,-0.0509425,VALID,19.0147,VALID,101,VALID,0.925881,
1999-09-15, 03:16:00,VALID,0,VALID,100,VALID,-0.0849042,VALID,19.0175,VALID,102,VALID,0.804018,
1999-09-15, 03:17:00,VALID,0,VALID,100,VALID,-0.0509425,VALID,19.0244,VALID,104,VALID,1.22873,
1999-09-15, 03:18:00,VALID,0,VALID,100,VALID,-0.0679233,VALID,19.0244,VALID,96,VALID,1.0442,
1999-09-15, 03:19:00,VALID,0.2,VALID,100,VALID,-0.0679233,VALID,19.0341,VALID,101,VALID,1.03506,
1999-09-15, 03:20:00,VALID,0,VALID,100,VALID,-0.0849042,VALID,19.0311,VALID,93,VALID,1.15491,
1999-09-15, 03:21:00,VALID,0.2,VALID,100,VALID,-0.101885,VALID,19.0277,VALID,89,VALID,1.04384,
1999-09-15, 03:22:00,VALID,0,VALID,100,VALID,-0.0679233,VALID,19.0016,VALID,95,VALID,0.860491,
1999-09-15, 03:23:00,VALID,0,VALID,100,VALID,-0.0509425,VALID,19.0214,VALID,96,VALID,0.778045,
1999-09-15, 03:24:00,VALID,0,VALID,100,VALID,-0.101885,VALID,19.0247,VALID,76,VALID,0.720089,
1999-09-15, 03:25:00,VALID,0,VALID,100,VALID,-0.0849042,VALID,18.9953,VALID,92,VALID,0.737196,
1999-09-15, 03:26:00,VALID,0.2,VALID,100,VALID,-0.0849042,VALID,19.0053,VALID,101,VALID,0.860045,
1999-09-15, 03:27:00,VALID,0.2,VALID,100,VALID,-0.0849042,VALID,19.0016,VALID,96,VALID,0.754207,
1999-09-15, 03:28:00,VALID,0,VALID,100,VALID,-0.0679233,VALID,18.9725,VALID,66,VALID,0.302009,
1999-09-15, 03:29:00,VALID,0.2,VALID,100,VALID,-0.0849042,VALID,18.9628,VALID,86,VALID,1.25738,
1999-09-15, 03:30:00,VALID,0,VALID,100,VALID,-0.0849042,VALID,18.9755,VALID,85,VALID,1.32813,
1999-09-15, 03:31:00,VALID,0.2,VALID,100,VALID,-0.0849042,VALID,18.9727,VALID,85,VALID,1.14243,
1999-09-15, 03:32:00,VALID,0,VALID,100,VALID,-0.0849042,VALID,18.9725,VALID,91,VALID,0.880134,
1999-09-15, 03:33:00,VALID,0.4,VALID,100,VALID,-0.0679233,VALID,18.9692,VALID,79,VALID,0.926649,
1999-09-15, 03:34:00,VALID,0.2,VALID,100,VALID,-0.0849042,VALID,18.9558,VALID,65,VALID,0.74375,
1999-09-15, 03:35:00,VALID,0.2,VALID,100,VALID,-0.0679233,VALID,18.9337,VALID,82,VALID,0.694311,
1999-09-15, 03:36:00,VALID,0.2,VALID,100,VALID,-0.0679233,VALID,18.9468,VALID,74,VALID,0.571429,
1999-09-15, 03:37:01,VALID,0.2,VALID,100,VALID,-0.0849042,VALID,18.9339,VALID,64,VALID,0.731337,
1999-09-15, 03:38:00,VALID,0.2,VALID,100,VALID,-0.0679233,VALID,18.9332,VALID,78,VALID,0.520536,
1999-09-15, 03:39:00,VALID,0,VALID,100,VALID,-0.0339617,VALID,18.9371,VALID,82,VALID,0.640224,
1999-09-15, 03:40:00,VALID,0,VALID,100,VALID,-0.0679233,VALID,18.9369,VALID,89,VALID,0.666964,
1999-09-15, 03:41:00,VALID,0,VALID,100,VALID,-0.0679233,VALID,18.9536,VALID,98,VALID,0.866319,
1999-09-15, 03:42:00,VALID,0,VALID,100,VALID,-0.101885,VALID,18.9503,VALID,95,VALID,0.534821,
1999-09-15, 03:43:00,VALID,0.2,VALID,100,VALID,-0.0509425,VALID,18.9595,VALID,94,VALID,0.446915,
1999-09-15, 03:44:00,VALID,0,VALID,100,VALID,-0.0849042,VALID,18.9598,VALID,62,VALID,0.160714,
1999-09-15, 03:45:00,VALID,0,VALID,100,VALID,-0.0849042,VALID,18.9501,VALID,61,VALID,0,
1999-09-15, 03:46:00,VALID,0,VALID,100,VALID,-0.0849042,VALID,18.9632,VALID,61,VALID,0,
1999-09-15, 03:47:00,VALID,0,VALID,100,VALID,-0.101885,VALID,18.9464,VALID,61,VALID,0,
1999-09-15, 03:48:01,VALID,0,VALID,100,VALID,-0.101885,VALID,18.9533,VALID,61,VALID,0,
1999-09-15, 03:49:00,VALID,0.2,VALID,100,VALID,-0.0849042,VALID,18.9598,VALID,61,VALID,0,
1999-09-15, 03:50:00,VALID,0,VALID,100,VALID,-0.0679233,VALID,18.9632,VALID,61,VALID,0,
1999-09-15, 03:51:00,VALID,0,VALID,100,VALID,-0.0679233,VALID,18.9697,VALID,276,VALID,0.11278,
1999-09-15, 03:52:00,VALID,0,VALID,100,VALID,-0.0679233,VALID,18.9695,VALID,299,VALID,0.516071,
1999-09-15, 03:53:00,VALID,0,VALID,100,VALID,-0.0509425,VALID,18.9434,VALID,5,VALID,0.495877,
1999-09-15, 03:54:00,VALID,0,VALID,100,VALID,-0.101885,VALID,18.9727,VALID,103,VALID,0.719196,
1999-09-15, 03:55:00,VALID,0,VALID,100,VALID,-0.0849042,VALID,18.9729,VALID,101,VALID,0.566306,
1999-09-15, 03:56:00,VALID,0,VALID,100,VALID,-0.101885,VALID,18.9854,VALID,102,VALID,0.642857,
1999-09-15, 03:57:00,VALID,0,VALID,100,VALID,-0.0849042,VALID,18.9953,VALID,101,VALID,0.894531,
1999-09-15, 03:58:00,VALID,0,VALID,100,VALID,-0.0849042,VALID,19.0088,VALID,88,VALID,0.799107,
1999-09-15, 03:59:01,VALID,0,VALID,100,VALID,-0.101885,VALID,18.9859,VALID,86,VALID,0.938502,
1999-09-15, 04:00:00,VALID,0,VALID,100,VALID,-0.0679233,VALID,18.9884,VALID,39,VALID,0.276786,
1999-09-15, 04:01:00,VALID,0.2,VALID,100,VALID,0.0169808,VALID,18.9907,VALID,339,VALID,0.113715,
1999-09-15, 04:02:00,VALID,0,VALID,100,VALID,0,VALID,18.981,VALID,300,VALID,0.0502232,
1999-09-15, 04:03:00,VALID,0,VALID,100,VALID,0.0169808,VALID,18.9782,VALID,294,VALID,0,
1999-09-15, 04:04:00,VALID,0,VALID,100,VALID,0,VALID,18.9874,VALID,230,VALID,0.160491,
1999-09-15, 04:05:00,VALID,0,VALID,100,VALID,0.0339617,VALID,18.9877,VALID,280,VALID,0.236328,
1999-09-15, 04:06:00,VALID,0,VALID,100,VALID,0,VALID,19.0101,VALID,323,VALID,0.165625,
1999-09-15, 04:07:00,VALID,0,VALID,100,VALID,0.0169808,VALID,19.0262,VALID,297,VALID,0,
1999-09-15, 04:08:00,VALID,0.2,VALID,100,VALID,0.0339617,VALID,19.0066,VALID,269,VALID,0,
1999-09-15, 04:09:00,VALID,0,VALID,100,VALID,0.0339617,VALID,18.9971,VALID,123,VALID,0.420573,
1999-09-15, 04:10:01,VALID,0.2,VALID,100,VALID,0,VALID,18.9837,VALID,102,VALID,0.23817,
1999-09-15, 04:11:00,VALID,0,VALID,100,VALID,0.0339617,VALID,18.9907,VALID,103,VALID,0.13762,
1999-09-15, 04:12:00,VALID,0.2,VALID,100,VALID,0.0169808,VALID,18.981,VALID,116,VALID,0.252009,
1999-09-15, 04:13:00,VALID,0,VALID,100,VALID,0.0339617,VALID,18.9815,VALID,133,VALID,0,
1999-09-15, 04:14:00,VALID,0.2,VALID,100,VALID,0.0339617,VALID,18.981,VALID,196,VALID,0.341741,
1999-09-15, 04:15:00,VALID,0,VALID,100,VALID,0.0169808,VALID,18.9581,VALID,280,VALID,0.791266,
1999-09-15, 04:16:00,VALID,0,VALID,100,VALID,0,VALID,18.9549,VALID,230,VALID,0.0790179,
1999-09-15, 04:17:00,VALID,0.2,VALID,100,VALID,0.0339617,VALID,18.9586,VALID,185,VALID,0.237847,
1999-09-15, 04:18:00,VALID,0.2,VALID,100,VALID,0,VALID,18.9452,VALID,96,VALID,0.741964,
1999-09-15, 04:19:00,VALID,0,VALID,100,VALID,0,VALID,18.9519,VALID,101,VALID,0.792268,